Lid_Strength_Index
10 13 15 13 13 13 14 15 15 13 11 13 13 12 11 9 10 11 11 12 11 10 9 9 9 7 7 6 6 6 7 6 6 7 7 6 5 5 4 3 2 0 0 1
12 15 12 12 12 13 14 16 16 13 12 13 13 13 11 10 10 10 11 11 11 10 10 10 9 9 8 7 6 6 7 7 6 6 6 6 5 4 2 1 1 0 0 0
15 13 12 13 14 15 15 16 17 16 13 12 13 14 13 11 10 10 10 9 9 10 11 10 10 10 9 8 6 6 7 7 6 6 6 5 4 4 3 2 1 0 0 0
14 13 14 15 15 14 17 14 14 14 15 19 13 21 14 13 12 11 10 10 11 12 11 10 10 10 9 8 6 6 7 7 6 6 4 5 4 4 2 2 1 1 1 0
15 15 15 15 15 14 15 14 14 15 16 16 18 20 16 14 15 12 11 10 11 12 11 11 10 9 8 8 6 6 7 7 7 6 5 2 2 2 1 2 2 1 1 0
14 13 13 14 14 14 13 14 15 16 16 21 18 19 18 17 15 13 11 11 11 12 12 11 10 9 9 8 7 6 7 8 8 7 6 4 3 2 3 3 3 3 3 2
15 15 14 13 15 14 15 17 21 22 23 20 16 19 17 12 12 11 11 11 12 12 12 12 12 11 10 9 8 7 7 9 8 7 7 6 4 4 4 4 4 4 4 4
18 20 15 14 15 16 17 17 21 24 22 21 18 20 16 12 11 11 11 12 12 13 12 12 12 11 10 9 8 7 7 9 9 8 8 7 6 5 5 5 5 5 5 5
17 18 15 14 14 15 17 20 17 20 22 21 18 16 14 13 13 12 12 12 13 13 13 13 12 12 11 9 9 8 7 8 9 9 9 9 8 7 7 6 6 5 5 5
15 19 16 15 15 15 16 16 21 20 25 23 19 19 18 16 14 13 13 13 13 13 13 13 13 12 11 10 9 8 7 8 9 9 9 9 9 8 8 8 8 8 7 7
15 17 19 16 17 18 18 19 18 18 19 21 21 19 16 14 13 13 13 12 13 14 14 13 13 12 11 10 9 9 8 8 9 9 10 10 10 10 9 9 9 9 9 9
15 16 21 19 17 16 16 17 18 21 21 20 19 19 14 13 12 12 12 11 13 13 13 13 13 12 12 11 10 9 9 9 9 9 10 10 10 10 10 10 9 10 10 10
15 19 23 21 20 17 18 17 16 17 19 20 21 18 13 13 14 13 12 12 13 13 14 13 13 13 12 12 10 10 9 9 9 9 10 10 11 11 11 11 11 11 11 11
13 18 19 21 21 19 20 19 17 18 22 20 19 18 16 15 14 13 12 12 14 14 13 14 14 13 13 12 11 10 10 9 9 9 9 10 11 11 11 11 11 11 11 11
14 21 20 19 18 19 19 18 18 19 18 21 18 17 14 14 14 13 12 12 13 13 14 14 14 13 13 13 12 11 10 9 9 10 10 10 10 9 9 9 9 10 9 9
15 22 20 23 19 19 20 19 18 17 17 17 17 17 12 12 13 13 12 11 12 13 13 13 13 13 13 12 12 11 11 10 10 10 10 10 10 9 10 10 9 9 10 9
17 18 20 22 21 23 25 21 19 18 16 17 19 15 13 14 13 12 12 11 11 13 13 13 13 13 13 13 12 12 11 10 10 11 11 10 10 10 10 10 11 11 11 10
17 18 18 21 21 25 18 18 17 17 16 15 15 14 13 12 12 11 11 11 11 12 12 12 13 13 13 13 12 12 12 11 11 11 11 11 11 12 12 12 12 12 12 11
15 16 19 22 22 19 17 18 19 19 18 15 15 14 13 13 14 13 11 10 10 11 11 12 12 12 12 13 13 12 13 13 12 12 12 12 12 13 13 13 13 13 12 13
15 15 17 22 24 24 17 19 18 16 20 14 14 14 14 14 15 13 11 11 10 11 11 12 12 12 12 13 13 13 13 13 13 13 13 13 13 13 14 14 13 13 13 13
18 18 19 19 20 20 15 18 17 19 17 16 15 14 15 15 13 13 13 11 10 10 12 11 12 12 12 12 13 14 14 13 13 14 14 14 13 13 13 14 14 14 13 13
18 19 19 18 20 22 17 18 17 15 17 17 16 15 15 14 13 14 14 12 12 12 12 12 12 13 13 13 13 14 14 14 14 14 14 15 15 14 14 15 14 14 14 14
18 16 18 17 17 15 16 16 15 16 16 17 18 16 16 14 14 14 14 13 12 12 13 13 13 14 13 13 13 14 14 14 15 16 17 18 17 16 15 15 15 15 15 15
16 14 17 17 15 14 15 14 15 14 16 16 16 17 17 16 14 15 15 15 15 14 14 13 15 14 14 14 14 13 14 15 16 17 18 18 18 17 17 15 15 15 15 15
16 15 17 17 15 15 14 13 12 14 15 16 17 16 16 16 16 15 15 15 15 15 15 14 14 14 14 14 14 15 15 15 16 17 18 18 18 17 17 17 15 15 15 14
14 16 16 17 14 13 12 12 12 14 14 14 16 17 17 16 17 16 16 15 16 16 15 15 15 15 15 15 15 15 15 15 16 17 18 18 17 18 17 16 19 13 13 12